DW2144 Weather Reports


Display with metric or nautical units.
time (UTC)temp
F
wind
direction
speed
MPH
gust
MPH
rain 1hr
in
rain 24hr
in
rain mn
in
humidity
%
barometer
mb
20260509023053 68 328 0.0 0.0 0.00 0.00 0.00 68 1013.4
20260509021553 69 328 0.0 1.0 0.00 0.00 0.00 66 1013.3
20260509020107 70 328 0.0 2.0 0.00 0.00 0.00 64 1013.2
20260509014552 71 328 0.0 2.0 0.00 0.00 0.00 64 1013.2
20260509013055 71 325 0.0 3.0 0.00 0.00 0.00 64 1013.2
20260509011558 72 324 0.0 2.0 0.00 0.00 0.00 64 1013.2
20260509010050 73 324 0.0 3.0 0.00 0.00 0.00 63 1013.3
20260509004550 73 322 0.0 1.0 0.00 0.00 0.00 64 1013.5
20260509003055 74 322 0.0 3.0 0.00 0.00 0.00 64 1013.5
20260509001547 74 322 0.0 3.0 0.00 0.00 0.00 63 1013.5
20260509000045 75 323 0.0 5.0 0.00 0.00 0.00 62 1013.6
20260508234545 75 336 0.0 4.0 0.00 0.00 0.00 63 1013.8
20260508233046 75 335 0.0 3.0 0.00 0.00 0.00 61 1013.9
20260508231547 75 336 0.0 4.0 0.00 0.00 0.00 61 1014.0
20260508230042 76 350 0.0 4.0 0.00 0.00 0.00 61 1014.1
20260508224548 76 360 0.0 2.0 0.00 0.00 0.00 61 1014.2
20260508223034 76 360 0.0 5.0 0.00 0.00 0.00 61 1014.4
20260508221532 75 347 0.0 3.0 0.00 0.00 0.00 60 1014.6
20260508220030 76 347 0.0 4.0 0.00 0.00 0.00 59 1014.9
20260508214532 76 347 0.0 4.0 0.00 0.00 0.00 59 1014.8
20260508213025 75 350 0.0 3.0 0.00 0.00 0.00 60 1015.1
20260508211521 75 350 1.0 4.0 0.00 0.00 0.00 59 1015.2
20260508210030 75 350 0.0 5.0 0.00 0.00 0.00 60 1015.4
20260508204518 75 355 0.0 4.0 0.00 0.00 0.00 62 1015.5
20260508203014 74 336 0.0 4.0 0.00 0.00 0.00 63 1015.6
20260508201511 73 293 0.0 3.0 0.00 0.00 0.00 63 1015.8
20260508200011 74 331 0.0 3.0 0.00 0.00 0.00 61 1016.0
20260508194508 74 331 0.0 1.0 0.00 0.00 0.00 63 1016.1
20260508193002 73 331 0.0 1.0 0.00 0.00 0.00 64 1016.4
20260508191608 72 331 0.0 0.0 0.00 0.00 0.00 66 1016.4
20260508190113 71 331 0.0 3.0 0.00 0.00 0.00 67 1016.6
20260508184555 70 332 0.0 1.0 0.00 0.00 0.00 68 1016.6
20260508183054 69 333 0.0 3.0 0.00 0.00 0.00 68 1017.0
20260508181553 68 333 0.0 1.0 0.00 0.00 0.00 70 1017.0
20260508180045 67 333 0.0 0.0 0.00 0.00 0.00 71 1017.0
20260508174543 66 333 0.0 1.0 0.00 0.00 0.00 73 1017.2
20260508173037 64 332 0.0 1.0 0.00 0.00 0.00 76 1017.4
20260508171541 63 332 0.0 0.0 0.00 0.00 0.00 78 1017.2
20260508170029 61 332 0.0 0.0 0.00 0.00 0.00 82 1017.3
20260508164526 58 332 0.0 0.0 0.00 0.00 0.00 86 1017.4
20260508163021 56 332 0.0 1.0 0.00 0.00 0.00 86 1017.2
20260508161529 55 328 0.0 1.0 0.00 0.00 0.00 86 1017.2
20260508160016 54 328 0.0 0.0 0.00 0.00 0.00 87 1017.3
20260508154517 53 327 0.0 1.0 0.00 0.00 0.00 87 1017.2
20260508153030 53 327 0.0 0.0 0.00 0.00 0.00 87 1017.3
20260508151513 52 327 0.0 0.0 0.00 0.00 0.00 87 1017.2
20260508150013 52 327 0.0 0.0 0.00 0.00 0.00 86 1017.2
20260508144513 51 327 0.0 0.0 0.00 0.00 0.00 86 1017.4
20260508143013 51 327 0.0 0.0 0.00 0.00 0.00 86 1017.1
20260508141510 50 327 0.0 0.0 0.00 0.00 0.00 87 1017.1
20260508140009 50 327 0.0 0.0 0.00 0.00 0.00 87 1017.0
20260508134511 50 327 0.0 0.0 0.00 0.00 0.00 87 1016.8
20260508133005 51 327 0.0 0.0 0.00 0.00 0.00 87 1016.7
20260508131502 52 327 0.0 0.0 0.00 0.00 0.00 87 1016.7
20260508130100 52 327 0.0 0.0 0.00 0.00 0.00 87 1016.7
20260508124558 53 327 0.0 0.0 0.00 0.00 0.00 87 1016.6
20260508123058 53 327 0.0 1.0 0.00 0.00 0.00 87 1016.4
20260508121557 53 327 0.0 0.0 0.00 0.00 0.00 87 1016.5
20260508120112 53 327 0.0 0.0 0.00 0.00 0.00 87 1016.5
20260508114603 53 327 0.0 0.0 0.00 0.00 0.00 87 1016.5
20260508113102 53 327 0.0 0.0 0.00 0.00 0.00 87 1016.7
20260508111554 53 327 0.0 0.0 0.00 0.00 0.00 87 1016.6
20260508110103 53 327 0.0 0.0 0.00 0.00 0.00 86 1016.8
20260508104553 53 327 0.0 0.0 0.00 0.00 0.00 87 1016.8
20260508103057 53 327 0.0 0.0 0.00 0.00 0.00 87 1016.8
20260508101554 53 327 0.0 0.0 0.00 0.00 0.00 87 1016.6
20260508100111 53 327 0.0 0.0 0.00 0.00 0.00 87 1016.7
20260508094551 53 327 0.0 0.0 0.00 0.00 0.00 87 1016.7
20260508093049 53 327 0.0 0.0 0.00 0.00 0.00 87 1016.5
20260508091606 53 327 0.0 0.0 0.00 0.00 0.00 87 1016.3
20260508090050 53 327 0.0 0.0 0.00 0.00 0.00 87 1016.3
20260508084546 53 327 0.0 0.0 0.00 0.00 0.00 87 1016.4
20260508083046 53 327 0.0 0.0 0.00 0.00 0.00 87 1016.4
20260508081606 53 327 0.0 0.0 0.00 0.00 0.00 87 1016.5
20260508080044 53 327 0.0 0.0 0.00 0.00 0.00 87 1016.4
20260508074643 53 327 0.0 0.0 0.00 0.00 0.00 87 1016.5
20260508073047 53 327 0.0 0.0 0.00 0.00 0.00 87 1016.5
20260508071541 53 327 0.0 1.0 0.00 0.00 0.00 87 1016.6
20260508070039 54 327 0.0 1.0 0.00 0.00 0.00 87 1016.4
20260508064540 54 327 0.0 0.0 0.00 0.00 0.00 87 1016.5
20260508063039 54 327 0.0 0.0 0.00 0.00 0.00 87 1016.5
20260508061538 54 327 0.0 0.0 0.00 0.00 0.00 87 1016.4
20260508060053 53 327 0.0 0.0 0.00 0.00 0.00 86 1016.4
20260508054610 53 327 0.0 0.0 0.00 0.00 0.00 86 1016.3
20260508053047 54 327 0.0 0.0 0.00 0.00 0.00 85 1016.2
20260508051536 55 327 0.0 0.0 0.00 0.00 0.00 85 1016.1
20260508050035 56 327 0.0 0.0 0.00 0.00 0.00 84 1016.1
20260508044535 56 327 0.0 0.0 0.00 0.00 0.00 83 1016.1
20260508043037 57 327 0.0 0.0 0.00 0.00 0.00 83 1016.0
20260508041534 58 327 0.0 0.0 0.00 0.00 0.00 82 1015.7
20260508040034 59 327 0.0 0.0 0.00 0.00 0.00 82 1015.4
20260508034538 59 327 0.0 0.0 0.00 0.00 0.00 81 1015.2
20260508033035 60 327 0.0 1.0 0.00 0.00 0.00 79 1015.1
20260508031534 61 327 0.0 1.0 0.00 0.00 0.00 78 1015.0
20260508030032 63 327 0.0 2.0 0.00 0.00 0.00 77 1014.6
20260508024535 64 327 0.0 0.0 0.00 0.00 0.00 75 1014.6